Airfield :
LOGIN :

Register | Disclaimer

   EN    FR    IT 

 










Legend :    VFR   Marginal VFR   IFR   Intensive IFR   Very Intensive IFR
Visi :
Ceiling :
>= 8 km
>= 3000ft
5 to 8 km
1000 to 3000 ft
1500m to 5 km
500 to 1000 ft
800 to 1500m
200 to 500 ft
< 800m
< 200 ft
Symbols :   Thunderstorms  Fog  Heavy snow  Heavy precipitations  Wind > 20 kt
SIGMETs :     Misc.  Thunderstorms  Icing  Turbulence  Mountain Waves  Volcanic Ashes







- Airport Elevation : 602 ft
- IATA code : NVS
- Download approach charts


LFQG - Nevers

CURRENT METAR :
  • 211500Z AUTO 29006KT 240V010 9999 NCD 24/13 Q1014

EXPIRED METARs :
  • 211430Z AUTO 31009KT 290V360 9999 FEW041 SCT094 24/13 Q1014
  • 211400Z AUTO 33008KT 300V360 9999 FEW042 SCT056 OVC092 24/14 Q1014
  • 211330Z AUTO VRB02KT 9999 FEW042 BKN088 25/14 Q1014
  • 211300Z AUTO 34008KT 9999 FEW007 BKN047 BKN060 23/14 Q1015
  • 211230Z AUTO VRB03KT 9999 FEW042 SCT088 25/14 Q1015

TAF N/A
No reported NOTAMs for that airfield.



MET'MAP, your aeronautical weather chart ! - Copyright ORBIFLY December 2007 - Disclaimer

ORBIFLY MET'MAP TEAM :

Programming & Development : Alexandra Zaïnal
Concept & Development : Baudouin d'Aumeries
Co-Development & Prog : Marc-Olivier Méhu
Technical & hardware support : Manuel Goepfert

Contact : metmap@orbifly.com




SOURCES & CREDITS :

   NOAA